RSC849 GCLP-GCFV

Flight info

Callsign RSC849
Flight time 0h 27m
Altitude 10000
Route KOPUD
Aircraft AT76/M-SDFGIRY/S

Departure

Time 2026-05-04 18:27
Airport Gran Canaria Airport (GCLP)

Arrival

Time 2026-05-04 18:55
Airport Fuerteventura Airport (GCFV)
Time Latitude Longitude Altitude Speed Heading
2026-05-04 17:59 27.93499 -15.38809 77 ft 0 kts 291°
2026-05-04 18:21 27.93499 -15.38810 77 ft 0 kts 291°
2026-05-04 18:21 27.93502 -15.38820 71 ft 2 kts 291°
2026-05-04 18:21 27.93493 -15.38847 78 ft 7 kts 223°
2026-05-04 18:22 27.93439 -15.38851 73 ft 5 kts 135°
2026-05-04 18:22 27.93433 -15.38833 74 ft 4 kts 104°
2026-05-04 18:22 27.93409 -15.38743 67 ft 5 kts 144°
2026-05-04 18:22 27.93388 -15.38751 70 ft 5 kts 213°
2026-05-04 18:23 27.93297 -15.38804 71 ft 28 kts 200°
2026-05-04 18:23 27.93063 -15.38913 71 ft 39 kts 201°
2026-05-04 18:23 27.92837 -15.39013 84 ft 31 kts 201°
2026-05-04 18:23 27.92653 -15.39099 86 ft 26 kts 197°
2026-05-04 18:24 27.92475 -15.39176 93 ft 26 kts 204°
2026-05-04 18:24 27.92315 -15.39244 96 ft 23 kts 201°
2026-05-04 18:24 27.92169 -15.39307 94 ft 23 kts 197°
2026-05-04 18:24 27.92006 -15.39298 87 ft 24 kts 175°
2026-05-04 18:25 27.91894 -15.39242 83 ft 13 kts 119°
2026-05-04 18:25 27.91888 -15.39225 83 ft 0 kts 75°
2026-05-04 18:25 27.91897 -15.39222 85 ft 3 kts
2026-05-04 18:25 27.91920 -15.39219 82 ft 0 kts 21°
2026-05-04 18:26 27.91921 -15.39219 82 ft 5 kts 21°
2026-05-04 18:27 27.92160 -15.39112 78 ft 67 kts 21°
2026-05-04 18:27 27.92764 -15.38845 69 ft 115 kts 21°
2026-05-04 18:27 27.93537 -15.38492 384 ft 128 kts 22°
2026-05-04 18:27 27.94410 -15.38094 749 ft 140 kts 23°
2026-05-04 18:28 27.95317 -15.37654 1189 ft 143 kts 22°
2026-05-04 18:28 27.96296 -15.37186 1221 ft 165 kts 23°
2026-05-04 18:28 27.97391 -15.36702 1500 ft 167 kts 21°
2026-05-04 18:28 27.98485 -15.36251 1865 ft 167 kts 21°
2026-05-04 18:29 27.99582 -15.35800 2205 ft 167 kts 21°
2026-05-04 18:29 28.00685 -15.35354 2523 ft 169 kts 20°
2026-05-04 18:29 28.01801 -15.34899 2813 ft 174 kts 20°
2026-05-04 18:29 28.02927 -15.34437 3206 ft 171 kts 20°
2026-05-04 18:30 28.05035 -15.33207 3786 ft 175 kts 39°
2026-05-04 18:30 28.05952 -15.32280 4072 ft 178 kts 41°
2026-05-04 18:30 28.06757 -15.31208 4335 ft 180 kts 55°
2026-05-04 18:31 28.07574 -15.30124 4564 ft 181 kts 42°
2026-05-04 18:31 28.08324 -15.28959 4804 ft 185 kts 59°
2026-05-04 18:31 28.08682 -15.27551 5025 ft 190 kts 86°
2026-05-04 18:31 28.08790 -15.26047 5275 ft 193 kts 82°
2026-05-04 18:32 28.08940 -15.24531 5537 ft 195 kts 83°
2026-05-04 18:32 28.09060 -15.22992 5794 ft 198 kts 85°
2026-05-04 18:32 28.09163 -15.21430 6062 ft 200 kts 85°
2026-05-04 18:32 28.09265 -15.19855 6327 ft 201 kts 85°
2026-05-04 18:33 28.09370 -15.18271 6587 ft 203 kts 85°
2026-05-04 18:33 28.09469 -15.16695 6834 ft 204 kts 85°
2026-05-04 18:33 28.09574 -15.15065 6957 ft 213 kts 85°
2026-05-04 18:33 28.09687 -15.13357 7008 ft 223 kts 85°
2026-05-04 18:34 28.09801 -15.11562 7033 ft 233 kts 85°
2026-05-04 18:34 28.09927 -15.09695 7046 ft 242 kts 85°
2026-05-04 18:34 28.10061 -15.07766 7053 ft 249 kts 85°
2026-05-04 18:34 28.10201 -15.05786 7050 ft 255 kts 85°
2026-05-04 18:35 28.10342 -15.03768 7049 ft 259 kts 85°
2026-05-04 18:35 28.10485 -15.01724 7051 ft 262 kts 85°
2026-05-04 18:35 28.10628 -14.99658 7051 ft 264 kts 85°
2026-05-04 18:35 28.10776 -14.97576 7048 ft 266 kts 85°
2026-05-04 18:36 28.10921 -14.95480 7050 ft 268 kts 85°
2026-05-04 18:36 28.11068 -14.93376 7047 ft 269 kts 85°
2026-05-04 18:36 28.11211 -14.91264 7049 ft 269 kts 85°
2026-05-04 18:36 28.11359 -14.89147 7049 ft 270 kts 85°
2026-05-04 18:37 28.11503 -14.87032 7049 ft 270 kts 85°
2026-05-04 18:37 28.11649 -14.84909 7050 ft 270 kts 85°
2026-05-04 18:37 28.11793 -14.82784 7049 ft 271 kts 85°
2026-05-04 18:37 28.11941 -14.80657 7045 ft 271 kts 85°
2026-05-04 18:38 28.12085 -14.78531 7043 ft 271 kts 85°
2026-05-04 18:38 28.12181 -14.77121 7044 ft 271 kts 85°
2026-05-04 18:38 28.12326 -14.74992 7045 ft 271 kts 85°
2026-05-04 18:38 28.12471 -14.72861 7043 ft 271 kts 85°
2026-05-04 18:39 28.12617 -14.70733 7048 ft 271 kts 85°
2026-05-04 18:39 28.12759 -14.68602 7043 ft 271 kts 85°
2026-05-04 18:39 28.12902 -14.66470 7046 ft 271 kts 85°
2026-05-04 18:39 28.13044 -14.64340 7044 ft 271 kts 85°
2026-05-04 18:40 28.13188 -14.62213 7048 ft 271 kts 85°
2026-05-04 18:40 28.13330 -14.60085 7045 ft 271 kts 85°
2026-05-04 18:40 28.13471 -14.57958 7046 ft 271 kts 85°
2026-05-04 18:40 28.13614 -14.55832 7044 ft 271 kts 85°
2026-05-04 18:41 28.13754 -14.53706 7046 ft 271 kts 85°
2026-05-04 18:41 28.13894 -14.51580 7032 ft 271 kts 85°
2026-05-04 18:41 28.14032 -14.49453 7048 ft 270 kts 85°
2026-05-04 18:41 28.14173 -14.47330 7048 ft 270 kts 85°
2026-05-04 18:42 28.14307 -14.45204 7045 ft 271 kts 85°
2026-05-04 18:42 28.14443 -14.43078 7043 ft 271 kts 85°
2026-05-04 18:42 28.14577 -14.40950 7046 ft 271 kts 85°
2026-05-04 18:42 28.14714 -14.38823 7044 ft 271 kts 85°
2026-05-04 18:43 28.14851 -14.36694 7041 ft 271 kts 85°
2026-05-04 18:43 28.14985 -14.34563 7043 ft 271 kts 85°
2026-05-04 18:43 28.15119 -14.32433 7040 ft 271 kts 85°
2026-05-04 18:43 28.15253 -14.30303 7044 ft 271 kts 85°
2026-05-04 18:44 28.15388 -14.28170 7051 ft 272 kts 85°
2026-05-04 18:44 28.15476 -14.26754 7031 ft 272 kts 85°
2026-05-04 18:44 28.15654 -14.23896 7035 ft 272 kts 85°
2026-05-04 18:44 28.15790 -14.21765 7041 ft 271 kts 85°
2026-05-04 18:45 28.15922 -14.19639 7044 ft 270 kts 85°
2026-05-04 18:45 28.16053 -14.17512 7047 ft 271 kts 85°
2026-05-04 18:45 28.16190 -14.15373 6873 ft 278 kts 85°
2026-05-04 18:45 28.16323 -14.13173 6516 ft 289 kts 85°
2026-05-04 18:46 28.16585 -14.10914 6090 ft 280 kts 71°
2026-05-04 18:46 28.17440 -14.09090 5634 ft 255 kts 54°
2026-05-04 18:46 28.18443 -14.07405 5205 ft 260 kts 53°
2026-05-04 18:46 28.19504 -14.05734 4798 ft 262 kts 51°
2026-05-04 18:47 28.20595 -14.04081 4350 ft 262 kts 51°
2026-05-04 18:47 28.21703 -14.02451 3939 ft 260 kts 50°
2026-05-04 18:47 28.22826 -14.00855 3551 ft 252 kts 51°
2026-05-04 18:47 28.23497 -13.99181 3219 ft 218 kts 71°
2026-05-04 18:48 28.23875 -13.97592 3044 ft 205 kts 77°
2026-05-04 18:48 28.23903 -13.95976 2851 ft 205 kts 89°
2026-05-04 18:48 28.23840 -13.94372 2753 ft 203 kts 90°
2026-05-04 18:48 28.23927 -13.92814 2638 ft 194 kts 75°
2026-05-04 18:49 28.24239 -13.91336 2566 ft 190 kts 70°
2026-05-04 18:49 28.24978 -13.90195 2530 ft 178 kts 33°
2026-05-04 18:49 28.26028 -13.89483 2509 ft 175 kts 30°
2026-05-04 18:49 28.27080 -13.88806 2502 ft 173 kts 27°
2026-05-04 18:50 28.28130 -13.88154 2489 ft 171 kts 26°
2026-05-04 18:50 28.29223 -13.87660 2478 ft 168 kts 20°
2026-05-04 18:50 28.30332 -13.87249 2492 ft 168 kts 15°
2026-05-04 18:50 28.31475 -13.86987 2494 ft 168 kts 11°
2026-05-04 18:51 28.32616 -13.86779 2323 ft 159 kts
2026-05-04 18:51 28.33663 -13.86722 2135 ft 141 kts
2026-05-04 18:51 28.34553 -13.86736 1951 ft 116 kts
2026-05-04 18:51 28.35298 -13.86725 1806 ft 98 kts
2026-05-04 18:52 28.36010 -13.86692 1691 ft 108 kts
2026-05-04 18:52 28.36784 -13.86654 1545 ft 113 kts
2026-05-04 18:52 28.37574 -13.86632 1406 ft 113 kts
2026-05-04 18:52 28.38356 -13.86606 1276 ft 113 kts
2026-05-04 18:53 28.39156 -13.86576 1041 ft 120 kts
2026-05-04 18:53 28.39976 -13.86571 890 ft 115 kts
2026-05-04 18:53 28.40765 -13.86543 751 ft 113 kts
2026-05-04 18:53 28.41561 -13.86502 624 ft 115 kts
2026-05-04 18:54 28.42355 -13.86467 462 ft 114 kts
2026-05-04 18:54 28.43154 -13.86443 276 ft 114 kts
2026-05-04 18:54 28.43925 -13.86417 138 ft 110 kts
2026-05-04 18:54 28.44671 -13.86398 60 ft 98 kts
2026-05-04 18:55 28.45260 -13.86373 71 ft 69 kts
2026-05-04 18:55 28.45663 -13.86407 81 ft 11 kts 272°
2026-05-04 18:55 28.45662 -13.86495 80 ft 11 kts 271°
2026-05-04 18:56 28.45659 -13.86582 81 ft 11 kts 271°
2026-05-04 18:56 28.45659 -13.86625 81 ft 0 kts 268°